Hourly Data Report for July 15, 2021

FLIN FLON
MANITOBA
Current Station Operator: ECCC - MSC

54°41'00.000" N
101°41'00.000" W
303.90 m
5050919
71954
WFO

Download Data

Hourly Data (July 2021)
Hourly Data Report for July 15, 2021
TIME
LST
Temp Definition
°C
Dew Point Definition
°C
Rel Hum Definition
%
Precip. Amount Definition
mm

Wind Dir Definition
10's deg

Wind Spd Definition
km/h
Visibility Definition
km
Stn Press Definition
kPa
Hmdx Definition


Wind Chill Definition


Weather Definition


00:00 20.8 15.0 69 0.0 19 10   97.65 25   LegendNANA
01:00 20.3 15.1 72 0.0 20 9   97.61     LegendNANA
02:00 20.1 15.3 74 0.0 19 9   97.56     LegendNANA
03:00 19.6 15.1 75 0.0 19 12   97.52     LegendNANA
04:00 19.5 15.6 78 0.0 18 10   97.47     LegendNANA
05:00 18.9 15.6 81 0.0 16 8   97.46     LegendNANA
06:00 19.4 15.7 79 0.0 19 10   97.44     LegendNANA
07:00 20.4 15.9 75 0.0 19 10   97.41 25   LegendNANA
08:00 21.9 15.5 67 0.0 20 12   97.37 26   LegendNANA
09:00 22.8 15.8 65 0.0 17 11   97.32 27   LegendNANA
10:00 24.2 16.3 61 0.0 17 13   97.29 29   LegendNANA
11:00 25.9 15.4 52 0.0 17 13   97.26 30   LegendNANA
12:00 27.6 14.1 43 0.0 17 16   97.22 31   LegendNANA
13:00 29.6 14.0 39 0.0 19 14   97.19 33   LegendNANA
14:00 31.3 13.0 33 0.0 20 17   97.13 34   LegendNANA
15:00 31.8 11.7 29 0.0 19 20   97.09 34   LegendNANA
16:00 31.6 11.6 29 0.0 20 22   97.05 34   LegendNANA
17:00 29.3 13.6 38 0.0 21 16   97.02 32   LegendNANA
18:00 28.5 13.9 41 0.0 21 12   96.97 32   LegendNANA
19:00 28.0 16.2 49 0.0 16 7   96.92 33   LegendNANA
20:00 27.3 15.9 50 0.0 16 7   96.89 32   LegendNANA
21:00 26.3 15.7 52 0.0 17 6   96.89 31   LegendNANA
22:00 25.1 18.1 65 0.0 20 5   96.86 31   LegendNANA
23:00 24.6 17.5 65 0.0 20 11   96.83 30   LegendNANA

Notes on Data Quality.

Legend

  • E = Estimated
  • M = Missing
  • NA = Not Available*
  • [empty] = Indicates an unobserved value
Date modified: